{"data":{"norad_id":59526,"epoch":"2026-05-24T18:20:39.302592Z","epoch_age_seconds":102224,"freshness":"FRESH","line1":"1 59526U 24073R   26144.76434378  .00007625  00000+0  28623-3 0  9995","line2":"2 59526  42.9996 248.0988 0001667 278.0296  82.0367 15.27590430117811","mean_motion":15.2759043,"eccentricity":0.0001667,"inclination_deg":42.9996,"raan_deg":248.0988,"arg_perigee_deg":278.0296,"mean_anomaly_deg":82.0367,"bstar":0.00028623,"rev_number":11781,"period_min":94.266105084201,"perigee_km":481.87411052918,"apogee_km":484.16161956118,"semimajor_km":6861.1548650452,"source":"CELESTRAK","updated_at":"2026-05-25T13:38:18.976481Z"}}